Wilmington, OH

6:56 AM EDT on April 23, 2017 (GMT -0400)
Airborne

Weather History for KILN - December, 2012

Change the Weather History Date:

Monday, December 10, 2012

  Actual Average (KFFO) Record (KFFO)
Temperature  
Mean Temperature 42 °F -  
Max Temperature 54 °F 41 °F 55 °F (1996)
Min Temperature 30 °F 27 °F 15 °F (2011)
Degree Days  
Heating Degree Days 23    
Moisture  
Dew Point 39 °F    
Average Humidity 91    
Maximum Humidity 100    
Minimum Humidity 79    
Precipitation  
Precipitation 0.23 in - - ()
Sea Level Pressure  
Sea Level Pressure 29.75 in    
Wind  
Wind Speed 11 mph (WNW)    
Max Wind Speed 14 mph    
Max Gust Speed 22 mph    
Visibility 7 miles    
Events Rain , Snow , Thunderstorm    
Averages and records for this station are not official NWS values.
T = Trace of Precipitation, MM = Missing Value Source: NWS Daily Summary

Daily Weather History Graph

Daily Weather History Graph

Search for Another Location

Airport or City:

Trip Planner

Search our weather history database for the weather conditions in past years. The results will help you decide how hot, cold, wet, or windy it might be!

Date:

Astronomy

Dec. 10, 2012 Rise Set
Actual Time 7:44 AM EST 5:11 PM EST
Civil Twilight 7:14 AM EST 5:41 PM EST
Nautical Twilight 6:41 AM EST 6:15 PM EST
Astronomical Twilight 6:08 AM EST 6:48 PM EST
Moon 4:27 AM EST (12/10) 2:59 PM EST (12/10)
Length of Visible Light 10h 27m
Length of Day
9h 26m
Waning Crescent, 10% of the Moon is Illuminated
Dec 10
Waning Crescent
Dec 13
New
Dec 20
First Quarter
Dec 28
Full
Jan 4
Last Quarter

Hourly Weather History & Observations

Time (EST) Temp. Windchill Dew Point Humidity Pressure Visibility Wind Dir Wind Speed Gust Speed Precip Events Conditions
12:25 AM 53.6 °F - 53.6 °F 100% 29.70 in 4.0 mi South 10.4 mph - 0.04 in Rain Rain
12:54 AM 53.1 °F - 53.1 °F 100% 29.71 in 4.0 mi South 11.5 mph - 0.14 in Rain Heavy Rain
1:54 AM 54.0 °F - 53.1 °F 97% 29.70 in 10.0 mi SW 11.5 mph 20.7 mph 0.06 in Rain Light Rain
2:07 AM 53.6 °F - 53.6 °F 100% 29.68 in 10.0 mi SW 12.7 mph 21.9 mph 0.00 in Rain Light Rain
3:54 AM 54.0 °F - 54.0 °F 100% 29.68 in 2.5 mi SSW 12.7 mph - 0.00 in   Overcast
4:05 AM 53.6 °F - 53.6 °F 100% 29.66 in 3.0 mi SW 10.4 mph - N/A   Overcast
4:54 AM 50.0 °F - 50.0 °F 100% 29.68 in 4.0 mi WNW 11.5 mph - 0.01 in   Overcast
5:51 AM 48.2 °F - 48.2 °F 100% 29.68 in 2.5 mi WNW 11.5 mph - 0.00 in Rain Light Rain
5:54 AM 48.9 °F - 48.0 °F 97% 29.70 in 2.5 mi WNW 9.2 mph - 0.00 in Rain Light Rain
6:05 AM 48.2 °F - 48.2 °F 100% 29.68 in 3.0 mi West 8.1 mph - 0.01 in Rain Light Rain
6:22 AM 48.2 °F - 46.4 °F 93% 29.68 in 7.0 mi West 9.2 mph - 0.01 in   Overcast
6:37 AM 48.2 °F - 46.4 °F 93% 29.68 in 8.0 mi West 9.2 mph - 0.01 in   Overcast
6:54 AM 48.0 °F - 46.0 °F 93% 29.70 in 8.0 mi WNW 8.1 mph - 0.01 in   Overcast
7:20 AM 46.4 °F 41.5 °F 46.4 °F 100% 29.68 in 7.0 mi WNW 10.4 mph - N/A   Overcast
7:37 AM 46.4 °F 41.9 °F 44.6 °F 93% 29.67 in 7.0 mi West 9.2 mph - N/A   Overcast
8:04 AM 44.6 °F 39.7 °F 42.8 °F 93% 29.68 in 5.0 mi WNW 9.2 mph - N/A   Overcast
8:19 AM 44.6 °F 38.4 °F 42.8 °F 93% 29.69 in 8.0 mi WNW 12.7 mph - N/A   Overcast
8:54 AM 43.0 °F 36.4 °F 41.0 °F 93% 29.71 in 7.0 mi NW 12.7 mph 17.3 mph N/A   Overcast
9:47 AM 39.2 °F 31.6 °F 37.4 °F 93% 29.70 in 8.0 mi WNW 12.7 mph - N/A   Overcast
9:54 AM 39.9 °F 32.9 °F 37.0 °F 89% 29.72 in 8.0 mi NW 11.5 mph - N/A   Overcast
10:04 AM 39.2 °F 31.2 °F 37.4 °F 93% 29.69 in 8.0 mi WNW 13.8 mph - N/A   Overcast
10:49 AM 39.2 °F 33.6 °F 35.6 °F 87% 29.69 in 9.0 mi NW 8.1 mph - N/A Thunderstorm Overcast
10:54 AM 39.9 °F 32.5 °F 36.0 °F 86% 29.73 in 9.0 mi NW 12.7 mph - N/A Thunderstorm Overcast
11:04 AM 39.2 °F 33.0 °F 35.6 °F 87% 29.70 in 10.0 mi WNW 9.2 mph - N/A   Overcast
11:50 AM 39.2 °F 33.0 °F 33.8 °F 81% 29.71 in 10.0 mi WNW 9.2 mph - 0.00 in Rain Light Rain
11:54 AM 39.9 °F 32.5 °F 34.0 °F 79% 29.75 in 10.0 mi WNW 12.7 mph - 0.00 in Rain Light Rain
12:26 PM 39.2 °F 33.0 °F 35.6 °F 87% 29.70 in 5.0 mi WNW 9.2 mph - 0.00 in Rain Light Rain
12:38 PM 39.2 °F 31.6 °F 35.6 °F 87% 29.71 in 8.0 mi WNW 12.7 mph - 0.00 in Rain Light Rain
12:54 PM 39.0 °F 31.8 °F 35.1 °F 86% 29.74 in 10.0 mi WNW 11.5 mph - 0.00 in Rain Light Rain
1:54 PM 39.0 °F 32.8 °F 35.1 °F 86% 29.73 in 7.0 mi WNW 9.2 mph - 0.01 in Rain Light Rain
2:22 PM 37.4 °F 28.9 °F 35.6 °F 93% 29.69 in 7.0 mi NW 13.8 mph - 0.00 in Rain Light Rain
2:54 PM 37.0 °F 29.8 °F 33.1 °F 86% 29.75 in 7.0 mi WNW 10.4 mph - 0.00 in   Overcast
3:54 PM 35.1 °F 26.9 °F 30.9 °F 85% 29.78 in 8.0 mi NW 11.5 mph - 0.00 in   Overcast
4:54 PM 34.0 °F 27.2 °F 30.0 °F 85% 29.80 in 8.0 mi NW 8.1 mph - 0.00 in Snow Light Snow
5:54 PM 33.1 °F 26.9 °F 28.9 °F 85% 29.82 in 8.0 mi WNW 6.9 mph - 0.00 in   Overcast
6:54 PM 33.1 °F 26.1 °F 28.9 °F 85% 29.84 in 8.0 mi West 8.1 mph - N/A   Overcast
7:15 PM 32.0 °F 23.0 °F 30.2 °F 93% 29.79 in 6.0 mi WNW 11.5 mph - N/A   Overcast
7:47 PM 32.0 °F 23.0 °F 28.4 °F 87% 29.81 in 7.0 mi WNW 11.5 mph - N/A   Overcast
7:54 PM 32.0 °F 23.0 °F 28.9 °F 88% 29.87 in 7.0 mi West 11.5 mph - N/A   Overcast
8:54 PM 32.0 °F 24.8 °F 28.0 °F 85% 29.91 in 8.0 mi West 8.1 mph - N/A   Overcast
9:54 PM 32.0 °F 24.8 °F 28.0 °F 85% 29.94 in 9.0 mi West 8.1 mph - N/A   Overcast
10:08 PM 32.0 °F 23.6 °F 28.4 °F 87% 29.87 in 9.0 mi WNW 10.4 mph - N/A   Overcast
10:17 PM 32.0 °F 24.2 °F 28.4 °F 87% 29.88 in 9.0 mi West 9.2 mph - N/A   Overcast
10:54 PM 30.9 °F 23.5 °F 28.0 °F 89% 29.95 in 8.0 mi West 8.1 mph - N/A   Overcast
11:26 PM 32.0 °F 22.1 °F 28.4 °F 87% 29.90 in 8.0 mi West 13.8 mph - N/A   Overcast
11:54 PM 30.9 °F 20.7 °F 28.9 °F 92% 29.97 in 6.0 mi West 13.8 mph - N/A   Overcast